Date String (YYYY-MM-DD hh:mm:ss) UTC,Instrument flags,absolute air pressure of the measurement (hPa),sample flow rate (lpm),inlet stack bypass flow (lpm),air temperature of the measurement (°C),ambient temperature measured by the external sensor (°C),aerosol sample conditioner tube jacket temperature (°C),OPC LED temperature (°C),internal box temperature (°C),relative humidity of the measurement (%),span deviation,mass concentration of particles derived from Lorenz-Mie calculation of OPC scattering (μg/m³),mass concentration of particles derived from Lorenz-Mie calculation of OPC scattering (μg/m³),mass concentration of particles derived from Lorenz-Mie calculation of OPC scattering (μg/m³)
DateTimeUTC,F1_M11,P_M11,Q1_M11,Q2_M11,T1_M11,T2_M11,T3_M11,T4_M11,T5_M11,U1_M11,ZSPAN_M11,X0_M11,X2_M11,X1_M11
2023-07-04 23:00:00,SystemResetWarning,0832.2,5.01,000.00,029.0,026.0,000.0,037.3,030.4,33.7,0000.0,0013.97,0005.35,0004.13
2023-07-04 23:01:00,SystemResetWarning,0832.2,4.99,000.00,029.0,026.4,000.0,037.4,030.5,33.7,0000.0,0013.89,0005.46,0004.17
2023-07-04 23:02:00,SystemResetWarning,0832.2,5.00,000.00,029.0,026.8,000.0,037.4,030.6,33.2,0000.0,0013.32,0005.50,0004.21
2023-07-04 23:03:00,SystemResetWarning,0832.2,5.00,000.00,029.0,027.2,000.0,037.4,030.7,33.1,0000.0,0013.96,0005.56,0004.25
2023-07-04 23:04:00,SystemResetWarning,0832.1,5.01,000.00,029.1,027.5,000.0,037.4,030.7,33.0,0000.0,0014.08,0005.60,0004.27
2023-07-04 23:05:00,SystemResetWarning,0832.1,4.99,000.00,029.1,027.7,000.0,037.5,030.8,33.8,0000.0,0014.47,0005.54,0004.27
2023-07-04 23:06:00,SystemResetWarning,0832.1,5.00,000.00,029.2,027.9,000.0,037.5,030.9,33.4,0000.0,0014.52,0005.53,0004.26
2023-07-04 23:07:00,SystemResetWarning,0832.1,5.00,000.00,029.2,027.9,000.0,037.5,030.9,33.3,0000.0,0014.16,0005.50,0004.26
2023-07-04 23:08:00,SystemResetWarning,0832.0,5.00,000.00,029.2,026.4,000.0,037.4,030.7,33.6,0000.0,0013.74,0005.49,0004.26
2023-07-04 23:09:00,SystemResetWarning,0832.0,5.00,000.00,029.1,024.9,000.0,037.3,030.5,33.9,0000.0,0013.22,0005.52,0004.27
2023-07-04 23:10:00,SystemResetWarning,0832.1,5.01,000.00,029.0,024.7,000.0,037.3,030.3,34.1,0000.0,0013.15,0005.52,0004.26
2023-07-04 23:11:00,SystemResetWarning,0832.1,5.01,000.00,028.9,025.0,000.0,037.3,030.1,34.8,0000.0,0012.57,0005.48,0004.25
2023-07-04 23:12:00,SystemResetWarning,0832.2,5.00,000.00,028.9,025.5,000.0,037.3,030.2,34.5,0000.0,0012.20,0005.37,0004.24
2023-07-04 23:13:00,SystemResetWarning,0832.2,4.98,000.00,028.9,026.0,000.0,037.4,030.3,35.1,0000.0,0012.78,0005.35,0004.23
2023-07-04 23:14:00,SystemResetWarning,0832.2,5.03,000.00,029.0,026.4,000.0,037.4,030.5,35.5,0000.0,0013.64,0005.35,0004.22
2023-07-04 23:15:00,SystemResetWarning,0832.2,5.00,000.00,029.3,026.8,000.0,037.4,030.7,35.2,0000.0,0013.95,0005.34,0004.24
2023-07-04 23:16:00,SystemResetWarning,0832.2,4.97,000.00,029.7,027.2,000.0,037.4,030.9,34.2,0000.0,0013.44,0005.35,0004.26
2023-07-04 23:17:00,SystemResetWarning,0832.2,5.01,000.00,029.9,027.4,000.0,037.5,031.0,33.4,0000.0,0013.54,0005.40,0004.28
2023-07-04 23:18:00,SystemResetWarning,0832.1,5.01,000.00,030.0,027.7,000.0,037.6,031.0,32.6,0000.0,0013.48,0005.41,0004.28
2023-07-04 23:19:00,SystemResetWarning,0832.1,5.00,000.00,030.1,027.9,000.0,037.7,031.1,32.6,0000.0,0013.42,0005.44,0004.28
2023-07-04 23:20:00,SystemResetWarning,0832.1,4.98,000.00,030.2,028.1,000.0,037.8,031.1,32.2,0000.0,0014.51,0005.40,0004.27
2023-07-04 23:21:00,SystemResetWarning,0832.1,5.00,000.00,030.3,027.1,000.0,037.8,031.1,32.1,0000.0,0014.48,0005.36,0004.26
2023-07-04 23:22:00,SystemResetWarning,0832.1,5.00,000.00,030.3,025.8,000.0,037.8,030.9,31.8,0000.0,0014.26,0005.34,0004.26
2023-07-04 23:23:00,SystemResetWarning,0832.0,5.00,000.00,030.2,025.5,000.0,037.8,030.7,31.7,0000.0,0014.13,0005.34,0004.24
2023-07-04 23:24:00,SystemResetWarning,0832.0,5.00,000.00,030.1,025.8,000.0,037.9,030.6,32.1,0000.0,0013.46,0005.31,0004.24
2023-07-04 23:25:00,SystemResetWarning,0832.0,5.01,000.00,030.1,026.2,000.0,037.9,030.7,32.3,0000.0,0012.34,0005.25,0004.21
2023-07-04 23:26:00,SystemResetWarning,0832.0,4.99,000.00,030.1,026.6,000.0,038.0,030.8,32.4,0000.0,0011.53,0005.19,0004.18
2023-07-04 23:27:00,SystemResetWarning,0832.0,5.00,000.00,030.1,027.0,000.0,038.1,030.9,32.3,0000.0,0011.50,0005.11,0004.15
2023-07-04 23:28:00,SystemResetWarning,0832.1,5.01,000.00,030.1,027.3,000.0,038.1,030.9,32.3,0000.0,0011.29,0005.06,0004.13
2023-07-04 23:29:00,SystemResetWarning,0832.2,4.99,000.00,030.1,027.6,000.0,038.1,031.0,31.8,0000.0,0011.76,0005.03,0004.12
2023-07-04 23:30:00,SystemResetWarning,0832.2,4.99,000.00,030.1,027.8,000.0,038.2,031.1,31.6,0000.0,0012.88,0004.98,0004.11
2023-07-04 23:31:00,SystemResetWarning,0832.3,5.00,000.00,030.1,028.0,000.0,038.2,031.2,31.9,0000.0,0012.36,0004.95,0004.09
2023-07-04 23:32:00,SystemResetWarning,0832.3,4.99,000.00,030.2,027.3,000.0,038.2,031.1,31.8,0000.0,0012.01,0004.95,0004.08
2023-07-04 23:33:00,SystemResetWarning,0832.4,5.00,000.00,030.1,025.9,000.0,038.1,031.0,32.0,0000.0,0012.27,0004.91,0004.06
2023-07-04 23:34:00,SystemResetWarning,0832.4,5.00,000.00,030.1,025.5,000.0,038.0,030.8,32.3,0000.0,0012.72,0004.87,0004.05
2023-07-04 23:35:00,SystemResetWarning,0832.6,5.01,000.00,029.9,025.8,000.0,038.1,030.6,32.6,0000.0,0013.01,0004.83,0004.02
2023-07-04 23:36:00,SystemResetWarning,0832.5,5.01,000.00,029.9,026.2,000.0,038.1,030.7,32.9,0000.0,0013.52,0004.81,0004.02
2023-07-04 23:37:00,SystemResetWarning,0832.5,5.00,000.00,029.9,026.6,000.0,038.1,030.8,32.9,0000.0,0013.63,0004.82,0004.01
2023-07-04 23:38:00,SystemResetWarning,0832.5,5.00,000.00,029.9,027.0,000.0,038.1,030.9,33.0,0000.0,0013.39,0004.82,0003.98
2023-07-04 23:39:00,SystemResetWarning,0832.5,5.00,000.00,029.9,027.3,000.0,038.2,031.0,32.4,0000.0,0013.35,0004.80,0003.96
2023-07-04 23:40:00,SystemResetWarning,0832.5,5.01,000.00,029.9,027.6,000.0,038.2,031.0,32.6,0000.0,0013.03,0004.78,0003.94
2023-07-04 23:41:00,SystemResetWarning,0832.5,5.00,000.00,029.9,027.8,000.0,038.2,031.1,33.1,0000.0,0012.02,0004.73,0003.92
2023-07-04 23:42:00,SystemResetWarning,0832.5,4.98,000.00,029.9,027.4,000.0,038.1,031.1,32.8,0000.0,0011.88,0004.70,0003.92
2023-07-04 23:43:00,SystemResetWarning,0832.5,5.00,000.00,029.9,025.9,000.0,038.0,030.9,33.1,0000.0,0011.65,0004.65,0003.90
2023-07-04 23:44:00,SystemResetWarning,0832.6,5.01,000.00,029.8,025.4,000.0,037.9,030.7,33.0,0000.0,0011.34,0004.65,0003.89
2023-07-04 23:45:00,SystemResetWarning,0832.7,5.01,000.00,029.7,025.6,000.0,038.0,030.6,33.4,0000.0,0010.65,0004.65,0003.88
2023-07-04 23:46:00,SystemResetWarning,0832.7,4.99,000.00,029.6,026.0,000.0,038.0,030.6,33.7,0000.0,0010.66,0004.63,0003.87
2023-07-04 23:47:00,SystemResetWarning,0832.7,5.00,000.00,029.6,026.4,000.0,038.0,030.7,33.7,0000.0,0010.14,0004.65,0003.86
2023-07-04 23:48:00,SystemResetWarning,0832.8,5.00,000.00,029.6,026.8,000.0,038.0,030.8,33.6,0000.0,0009.93,0004.61,0003.85
2023-07-04 23:49:00,SystemResetWarning,0832.8,4.99,000.00,029.6,027.2,000.0,038.0,030.9,33.9,0000.0,0010.44,0004.57,0003.84
2023-07-04 23:50:00,SystemResetWarning,0832.8,5.00,000.00,029.7,027.5,000.0,038.0,030.9,34.7,0000.0,0011.44,0004.56,0003.84
2023-07-04 23:51:00,SystemResetWarning,0832.8,5.00,000.00,029.7,027.7,000.0,038.1,031.0,34.5,0000.0,0011.68,0004.58,0003.83
2023-07-04 23:52:00,SystemResetWarning,0832.8,4.99,000.00,029.7,027.5,000.0,038.0,031.0,34.5,0000.0,0011.73,0004.60,0003.82
2023-07-04 23:53:00,SystemResetWarning,0833.0,5.01,000.00,029.7,025.9,000.0,037.9,030.9,34.3,0000.0,0010.92,0004.59,0003.81
2023-07-04 23:54:00,SystemResetWarning,0832.8,5.00,000.00,029.6,025.3,000.0,037.8,030.7,34.8,0000.0,0011.07,0004.60,0003.81
2023-07-04 23:55:00,SystemResetWarning,0832.7,4.99,000.00,029.5,025.5,000.0,037.8,030.5,34.8,0000.0,0011.53,0004.61,0003.81
2023-07-04 23:56:00,SystemResetWarning,0832.7,5.04,000.00,029.5,025.9,000.0,037.8,030.5,34.9,0000.0,0011.40,0004.60,0003.81
2023-07-04 23:57:00,SystemResetWarning,0832.7,4.97,000.00,029.5,026.3,000.0,037.9,030.7,35.1,0000.0,0011.87,0004.61,0003.82
2023-07-04 23:58:00,SystemResetWarning,0832.7,5.04,000.00,029.8,026.7,000.0,037.9,030.9,34.9,0000.0,0011.82,0004.61,0003.82
2023-07-04 23:59:00,SystemResetWarning,0832.6,4.96,000.00,030.0,027.0,000.0,037.9,031.0,34.3,0000.0,0011.96,0004.68,0003.84
